Weather History for Lynchburg, VA

Change the Weather History Date:

Friday, May 24, 2013

  Actual Average Record
Temperature  
Mean Temperature 54 °F 65 °F  
Max Temperature 65 °F 77 °F 93 °F (1903)
Min Temperature 42 °F 53 °F 40 °F (2006)
Degree Days  
Heating Degree Days 11 3  
Month to date heating degree days 127 107  
Since 1 July heating degree days 4269 4430  
Cooling Degree Days 0 3  
Month to date cooling degree days 62 40  
Year to date cooling degree days 102 58  
Growing Degree Days 5 (Base 50)    
Moisture  
Dew Point 45 °F    
Average Humidity 67    
Maximum Humidity 100    
Minimum Humidity 34    
Precipitation  
Precipitation T in 0.13 in 2.58 in (1900)
Month to date precipitation 5.25 2.80  
Year to date precipitation 19.57 15.76  
Snow  
Snow 0.00 in - - ()
Month to date snowfall 0.0  
Since 1 July snowfall 13.0  
Snow Depth 0.00 in    
Sea Level Pressure  
Sea Level Pressure 30.00 in    
Wind  
Wind Speed 6 mph (NW)    
Max Wind Speed 18 mph    
Max Gust Speed 30 mph    
Visibility 10 miles    
Events      
T = Trace of Precipitation, MM = Missing Value Source: NWS Daily Summary

Daily Weather History Graph

Daily Weather History Graph

Search for Another Location

Airport:

Trip Planner

Search our weather history database for the weather conditions in past years. The results will help you decide how hot, cold, wet, or windy it might be!

Date:

Astronomy

May. 24, 2013 Rise Set
Actual Time 6:01 AM EDT 8:26 PM EDT
Civil Twilight 5:31 AM EDT 8:56 PM EDT
Nautical Twilight 4:54 AM EDT 9:33 PM EDT
Astronomical Twilight 4:14 AM EDT 10:14 PM EDT
Moon 8:06 PM EDT (5/24) 5:30 AM EDT (5/24)
Length of Visible Light 15h 24m
Length of Day
14h 24m
Full, 100% of the Moon is Illuminated
May 24
Full
May 25
Full
May 31
Last Quarter
Jun 8
New
Jun 16
First Quarter

Hourly Weather History & Observations

Time (EDT) Temp. Dew Point Humidity Pressure Visibility Wind Dir Wind Speed Gust Speed Precip Events Conditions
12:54 AM 62.1 °F 60.1 °F 93% 29.83 in 10.0 mi Calm Calm - N/A   Partly Cloudy
1:54 AM 61.0 °F 60.1 °F 97% 29.84 in 10.0 mi SW 3.5 mph - N/A   Overcast
2:54 AM 62.1 °F 60.1 °F 93% 29.82 in 10.0 mi SW 3.5 mph - 0.00 in   Mostly Cloudy
3:54 AM 61.0 °F 60.1 °F 97% 29.81 in 9.0 mi Calm Calm - N/A   Overcast
4:54 AM 61.0 °F 57.9 °F 90% 29.82 in 10.0 mi West 4.6 mph - N/A   Overcast
5:54 AM 61.0 °F 57.0 °F 87% 29.84 in 10.0 mi West 4.6 mph - N/A   Overcast
6:54 AM 62.1 °F 55.9 °F 80% 29.87 in 10.0 mi Calm Calm - N/A   Overcast
7:54 AM 63.0 °F 54.0 °F 72% 29.88 in 10.0 mi Variable 4.6 mph - N/A   Overcast
8:54 AM 63.0 °F 51.1 °F 65% 29.92 in 10.0 mi NW 9.2 mph - N/A   Overcast
9:54 AM 63.0 °F 46.9 °F 56% 29.97 in 10.0 mi North 9.2 mph 17.3 mph N/A   Overcast
10:54 AM 63.0 °F 46.0 °F 54% 30.01 in 10.0 mi NNW 9.2 mph 20.7 mph N/A   Partly Cloudy
11:54 AM 63.0 °F 43.0 °F 48% 30.03 in 10.0 mi North 13.8 mph 21.9 mph N/A   Clear
12:54 PM 63.0 °F 43.0 °F 48% 30.05 in 10.0 mi Variable 5.8 mph 18.4 mph N/A   Clear
1:54 PM 63.0 °F 39.0 °F 41% 30.05 in 10.0 mi NW 10.4 mph 21.9 mph N/A   Partly Cloudy
2:54 PM 64.0 °F 37.0 °F 37% 30.06 in 10.0 mi North 12.7 mph 21.9 mph N/A   Partly Cloudy
3:54 PM 63.0 °F 37.0 °F 38% 30.06 in 10.0 mi WNW 12.7 mph 26.5 mph N/A   Clear
4:54 PM 63.0 °F 34.0 °F 34% 30.08 in 10.0 mi North 10.4 mph 24.2 mph N/A   Clear
5:54 PM 62.1 °F 33.1 °F 34% 30.09 in 10.0 mi NW 9.2 mph 21.9 mph N/A   Clear
6:54 PM 60.1 °F 33.1 °F 36% 30.10 in 10.0 mi Variable 6.9 mph - N/A   Clear
7:54 PM 57.9 °F 33.1 °F 39% 30.13 in 10.0 mi NNW 5.8 mph - N/A   Clear
8:54 PM 55.0 °F 32.0 °F 42% 30.16 in 10.0 mi NNW 6.9 mph - N/A   Clear
9:54 PM 53.1 °F 32.0 °F 45% 30.18 in 10.0 mi Variable 3.5 mph - N/A   Clear
10:54 PM 46.9 °F 35.1 °F 63% 30.20 in 10.0 mi Calm Calm - N/A   Clear
11:54 PM 45.0 °F 36.0 °F 71% 30.19 in 10.0 mi Calm Calm - N/A   Clear